Regional Weather Roundup
Issued by NWS

Home | Current Version | Previous Version | Text Only | Print | Product List | Glossary On
Versions: 1 2 3 4 5 6 7 8 9 10 11 12 13 14 15 16 17 18 19 20 21 22 23 24 25 26 27 28 29 30 31 32 33 34 35 36 37 38 39 40 41 42 43 44 45 46 47 48 49 50
000
ASUS43 KOAX 280610
RWRNE

WEATHER ROUNDUP FOR NEBRASKA
NATIONAL WEATHER SERVICE OMAHA NE
100 AM CDT THU MAY 28 2015

NOTES: SATELLITE DATA IS BEING USED TO AUGMENT CLOUD COVER ABOVE
       12000 FEET.
       "FAIR" INDICATES FEW OR NO CLOUDS BELOW 12,000 FEET WITH NO
       SIGNIFICANT WEATHER AND/OR OBSTRUCTIONS TO VISIBILITY.

  * THESE STATIONS DO NOT REPORT WEATHER SUCH AS RAIN...SNOW OR FOG.

NEZ001>004-019>022-054>056-280700-
NEBRASKA PANHANDLE

CITY           SKY/WX    TMP DP  RH WIND       PRES   REMARKS
SCOTTSBLUFF    CLOUDY    60  54  80 VRB7      30.02R
6HR MIN TEMP:  57; 6HR MAX TEMP:  68; 6HR PCP:  0.01;

ALLIANCE       MOCLDY    57  53  86 S15G24    30.02F
6HR MIN TEMP:  57; 6HR MAX TEMP:  68;

CHADRON        MOCLDY    61  53  75 S22G32    29.96F
6HR MIN TEMP:  58; 6HR MAX TEMP:  70;

KIMBALL          N/A    N/A N/A N/A MISG        N/A
SIDNEY         CLOUDY    58  53  84 NW6       30.11R
6HR MIN TEMP:  56; 6HR MAX TEMP:  68;

$$

NEZ057>060-069>072-079>082-280700-
SOUTHWEST NEBRASKA

CITY           SKY/WX    TMP DP  RH WIND       PRES   REMARKS
NORTH PLATTE   MOCLDY    60  56  86 CALM      30.02F
6HR MIN TEMP:  60; 6HR MAX TEMP:  70; 6HR PCP: TRACE;

IMPERIAL       MOCLDY    57  53  86 S8        30.03F
6HR MIN TEMP:  57; 6HR MAX TEMP:  63; 6HR PCP: TRACE;

LEXINGTON      MOCLDY    61  59  92 E6        30.02F
MCCOOK         CLOUDY    61  55  81 SW6       30.01F
6HR MIN TEMP:  61; 6HR MAX TEMP:  68; 6HR PCP:  0.15;

OGALLALA       CLEAR     57  53  89 W5        30.04S
$$

NEZ005>010-023>029-035>040-094-280700-
NORTH CENTRAL NEBRASKA

CITY           SKY/WX    TMP DP  RH WIND       PRES   REMARKS
VALENTINE      CLOUDY    62  55  77 S14       29.99S
6HR MIN TEMP:  62; 6HR MAX TEMP:  70; 6HR PCP: TRACE;

AINSWORTH      MOCLDY    64  56  75 S10       30.01S
BROKEN BOW     PTCLDY    59  55  87 SE3       30.03S
6HR MIN TEMP:  58; 6HR MAX TEMP:  71;

O`NEILL        MOCLDY    63  54  73 SE7       30.03S
ORD            MOCLDY    62  56  80 SE8       30.01F
6HR MIN TEMP:  61; 6HR MAX TEMP:  72;

THEDFORD       CLEAR     60  57  91 SW6       30.03F
$$

NEZ041-046>049-061>064-073>077-083>087-280700-
SOUTH CENTRAL NEBRASKA

CITY           SKY/WX    TMP DP  RH WIND       PRES   REMARKS
GRAND ISLAND   CLOUDY    66  58  75 SE10      30.04F
6HR MIN TEMP:  66; 6HR MAX TEMP:  77;

AURORA         CLOUDY    64  56  77 SE6       30.05S
HASTINGS       CLOUDY    66  58  75 SE9       30.04S
6HR MIN TEMP:  66; 6HR MAX TEMP:  76;

HEBRON         CLOUDY    65  57  75 SE6       30.05F
HOLDREGE       CLOUDY    63  59  85 SE7       30.02S
KEARNEY *      CLOUDY    64  57  77 S10       30.03S
YORK           MOCLDY    64  55  72 SE8       30.05F
$$

NEZ011>018-030>034-042>045-280700-
NORTHEAST NEBRASKA

CITY           SKY/WX    TMP DP  RH WIND       PRES   REMARKS
NORFOLK        CLOUDY    67  50  54 S8        30.04F
6HR MIN TEMP:  67; 6HR MAX TEMP:  79;

ALBION         MOCLDY    63  50  62 E5        30.05S
BLAIR          PTCLDY    66  50  56 S6        30.08S
COLUMBUS *     MOCLDY    64  48  55 S9        30.06F
FREMONT        PTCLDY    66  51  59 SE6       30.06F
TEKAMAH        MOCLDY    64  54  69 CALM      30.07R
6HR MIN TEMP:  63; 6HR MAX TEMP:  84;

WAYNE          MOCLDY    64  52  66 S10       30.05S
$$

NEZ050>053-065>068-078-088>093-280700-
SOUTHEAST NEBRASKA

CITY           SKY/WX    TMP DP  RH WIND       PRES   REMARKS
LINCOLN        MOCLDY    62  53  72 S7        30.07S
6HR MIN TEMP:  62; 6HR MAX TEMP:  80;

OMAHA EPPLEY   CLOUDY    65  54  67 SE6       30.07S
6HR MIN TEMP:  65; 6HR MAX TEMP:  81;

BEATRICE       CLOUDY    65  55  69 SE5       30.07S
NEBRASKA CITY  PTCLDY    62  50  63 S5        30.09F
PLATTSMOUTH    PTCLDY    65  51  61 SE6       30.08F
$$

NEZ044-045-051>053-067-280700-
OMAHA AREA

CITY           SKY/WX    TMP DP  RH WIND       PRES   REMARKS
OMAHA EPPLEY   CLOUDY    65  54  67 SE6       30.07S
6HR MIN TEMP:  65; 6HR MAX TEMP:  81;

BLAIR          PTCLDY    66  50  56 S6        30.08S
FREMONT        PTCLDY    66  51  59 SE6       30.06F
MILLARD        PTCLDY    61  54  78 CALM      30.07F
OFFUTT AFB     PTCLDY    57  55  93 CALM      30.07S
PLATTSMOUTH    PTCLDY    65  51  61 SE6       30.08F
WAHOO          FAIR      61  54  77 SE5       30.07S
$$


USA.gov is the U.S. government's official web portal to all federal, state and local government web resources and services.